�������l�o���
Date,Time,MP-1(��Sv/h),MP-2(��Sv/h),MP-3(��Sv/h),MP-4(��Sv/h),MP-5(��Sv/h),MP-6(��Sv/h),MP-7(��Sv/h),MP-8(��Sv/h),����,����(m/s),���J
2022/01/17,00:00,0.578,0.870,0.552,1.063,0.744,0.349,0.611,0.577,��,4.1,��
2022/01/17,00:10,0.580,0.868,0.555,1.062,0.745,0.351,0.612,0.577,���k��,5.3,��
2022/01/17,00:20,0.578,0.868,0.553,1.063,0.746,0.350,0.610,0.577,���k��,3.6,��
2022/01/17,00:30,0.580,0.869,0.553,1.063,0.743,0.352,0.611,0.578,���k��,2.9,��
2022/01/17,00:40,0.580,0.869,0.554,1.062,0.744,0.350,0.609,0.577,��,2.5,��
2022/01/17,00:50,0.579,0.869,0.553,1.063,0.745,0.351,0.610,0.577,��,3.0,��
2022/01/17,01:00,0.579,0.868,0.553,1.063,0.745,0.352,0.608,0.578,���쐼,3.3,��
2022/01/17,01:10,0.580,0.870,0.552,1.061,0.748,0.351,0.610,0.578,���쐼,2.6,��
2022/01/17,01:20,0.577,0.869,0.553,1.064,0.745,0.350,0.610,0.577,��,3.1,��
2022/01/17,01:30,0.580,0.870,0.552,1.064,0.744,0.352,0.610,0.577,��,5.2,��
2022/01/17,01:40,0.580,0.867,0.553,1.066,0.744,0.351,0.610,0.576,���쐼,4.3,��
2022/01/17,01:50,0.579,0.870,0.553,1.063,0.746,0.350,0.610,0.578,���쐼,4.8,��
2022/01/17,02:00,0.579,0.872,0.552,1.065,0.745,0.349,0.609,0.579,��,7.8,��
2022/01/17,02:10,0.578,0.869,0.553,1.065,0.745,0.350,0.609,0.578,���쐼,10.2,��
2022/01/17,02:20,0.580,0.871,0.552,1.064,0.746,0.351,0.610,0.577,���쐼,9.0,��
2022/01/17,02:30,0.578,0.869,0.551,1.063,0.746,0.350,0.610,0.579,��,6.9,��
2022/01/17,02:40,0.580,0.870,0.553,1.066,0.747,0.351,0.611,0.577,��,5.9,��
2022/01/17,02:50,0.580,0.868,0.552,1.064,0.745,0.351,0.612,0.580,��,5.6,��
2022/01/17,03:00,0.580,0.867,0.554,1.066,0.746,0.352,0.609,0.578,���쐼,5.4,��
2022/01/17,03:10,0.580,0.870,0.553,1.065,0.745,0.352,0.612,0.578,��,5.2,��
2022/01/17,03:20,0.579,0.868,0.555,1.066,0.744,0.350,0.610,0.578,���k��,4.1,��
2022/01/17,03:30,0.580,0.869,0.554,1.065,0.746,0.349,0.610,0.578,���k��,4.6,��
2022/01/17,03:40,0.578,0.870,0.553,1.065,0.744,0.350,0.609,0.579,�k��,5.5,��
2022/01/17,03:50,0.578,0.871,0.552,1.065,0.747,0.351,0.609,0.577,���k��,7.4,��
2022/01/17,04:00,0.580,0.871,0.552,1.065,0.747,0.350,0.611,0.579,���k��,7.1,��
2022/01/17,04:10,0.579,0.865,0.553,1.063,0.745,0.351,0.610,0.578,���k��,6.5,��
2022/01/17,04:20,0.578,0.870,0.551,1.064,0.745,0.350,0.610,0.579,���k��,5.7,��
2022/01/17,04:30,0.580,0.870,0.552,1.064,0.744,0.352,0.610,0.579,���k��,4.6,��
2022/01/17,04:40,0.580,0.871,0.553,1.063,0.744,0.350,0.611,0.579,��,3.1,��
2022/01/17,04:50,0.579,0.871,0.553,1.064,0.746,0.350,0.611,0.577,���k��,3.2,��
2022/01/17,05:00,0.580,0.871,0.551,1.064,0.746,0.352,0.611,0.577,���k��,3.7,��
2022/01/17,05:10,0.578,0.872,0.551,1.065,0.746,0.351,0.610,0.578,�k�k��,3.9,��
2022/01/17,05:20,0.578,0.868,0.554,1.066,0.745,0.350,0.610,0.578,�k��,4.2,��
2022/01/17,05:30,0.577,0.869,0.554,1.066,0.745,0.351,0.610,0.579,�k��,3.5,��
2022/01/17,05:40,0.579,0.869,0.553,1.065,0.744,0.351,0.608,0.578,�k�k��,4.3,��
2022/01/17,05:50,0.578,0.870,0.553,1.063,0.747,0.350,0.608,0.577,�k��,4.6,��
2022/01/17,06:00,0.578,0.869,0.553,1.065,0.747,0.350,0.610,0.579,�k��,6.0,��
2022/01/17,06:10,0.577,0.872,0.552,1.064,0.745,0.353,0.609,0.578,�k��,6.2,��
2022/01/17,06:20,0.579,0.867,0.553,1.064,0.746,0.350,0.611,0.578,�k��,5.9,��
2022/01/17,06:30,0.579,0.869,0.551,1.064,0.746,0.349,0.612,0.578,�k��,5.0,��
2022/01/17,06:40,0.579,0.869,0.551,1.062,0.745,0.350,0.609,0.578,�k�k��,6.2,��
2022/01/17,06:50,0.577,0.868,0.551,1.065,0.746,0.350,0.611,0.579,�k�k��,6.9,��
2022/01/17,07:00,0.577,0.869,0.553,1.065,0.745,0.350,0.609,0.578,�k�k��,6.7,��
2022/01/17,07:10,0.579,0.868,0.552,1.064,0.745,0.350,0.611,0.578,�k�k��,7.1,��
2022/01/17,07:20,0.578,0.868,0.551,1.063,0.746,0.349,0.610,0.577,�k�k��,7.5,��
2022/01/17,07:30,0.579,0.869,0.553,1.066,0.745,0.350,0.609,0.578,�k�k��,7.3,��
2022/01/17,07:40,0.579,0.869,0.552,1.063,0.744,0.349,0.610,0.577,�k�k��,7.6,��
2022/01/17,07:50,0.578,0.871,0.551,1.063,0.745,0.349,0.609,0.578,�k�k��,7.3,��
2022/01/17,08:00,0.580,0.867,0.552,1.066,0.745,0.350,0.609,0.579,�k�k��,6.5,��
2022/01/17,08:10,0.576,0.869,0.551,1.066,0.744,0.349,0.610,0.579,�k,7.6,��
2022/01/17,08:20,0.578,0.869,0.552,1.064,0.743,0.351,0.611,0.580,�k,6.7,��
2022/01/17,08:30,0.577,0.868,0.551,1.065,0.746,0.350,0.611,0.579,�k,5.7,��
2022/01/17,08:40,0.578,0.866,0.551,1.065,0.746,0.351,0.610,0.579,�k,4.4,��
2022/01/17,08:50,0.580,0.867,0.550,1.066,0.744,0.350,0.610,0.579,�k�k��,4.4,��
2022/01/17,09:00,0.580,0.867,0.553,1.066,0.744,0.351,0.610,0.579,�k,3.5,��
2022/01/17,09:10,0.579,0.867,0.551,1.067,0.744,0.349,0.610,0.580,�k�k��,3.0,��
2022/01/17,09:20,0.580,0.868,0.554,1.066,0.746,0.351,0.611,0.578,�k,2.6,��
2022/01/17,09:30,0.581,0.866,0.553,1.064,0.743,0.350,0.611,0.578,�k,3.7,��
2022/01/17,09:40,0.579,0.869,0.553,1.065,0.745,0.350,0.612,0.579,�k,2.6,��
2022/01/17,09:50,0.579,0.867,0.553,1.065,0.746,0.351,0.611,0.580,�k�k��,3.3,��
2022/01/17,10:00,0.581,0.866,0.553,1.065,0.746,0.350,0.608,0.580,�k�k��,3.4,��
2022/01/17,10:10,0.580,0.869,0.554,1.068,0.746,0.353,0.610,0.578,�k�k��,3.8,��
2022/01/17,10:20,0.580,0.863,0.553,1.066,0.747,0.350,0.608,0.579,�k�k��,2.6,��
2022/01/17,10:30,0.580,0.865,0.553,1.065,0.745,0.350,0.609,0.579,�k,3.0,��
2022/01/17,10:40,0.579,0.873,0.553,1.065,0.746,0.352,0.610,0.579,�k,2.9,��
2022/01/17,10:50,0.581,0.867,0.552,1.066,0.748,0.351,0.608,0.578,�k�k��,2.3,��
2022/01/17,11:00,0.580,0.866,0.553,1.064,0.746,0.351,0.610,0.579,�k�k��,4.8,��
2022/01/17,11:10,0.581,0.865,0.552,1.068,0.748,0.351,0.609,0.579,�k�k��,4.2,��
2022/01/17,11:20,0.580,0.866,0.555,1.068,0.747,0.352,0.609,0.580,�k�k��,3.1,��
2022/01/17,11:30,0.580,0.866,0.553,1.068,0.748,0.351,0.609,0.579,�k�k��,3.1,��
2022/01/17,11:40,0.579,0.864,0.554,1.068,0.749,0.352,0.608,0.579,�k�k��,2.6,��
2022/01/17,11:50,0.582,0.866,0.554,1.068,0.749,0.353,0.608,0.580,�k��,6.0,�L
2022/01/17,12:00,0.581,0.868,0.552,1.067,0.751,0.351,0.609,0.579,�k��,8.0,�L
2022/01/17,12:10,0.581,0.868,0.554,1.069,0.748,0.351,0.610,0.578,�k��,8.2,�L
2022/01/17,12:20,0.582,0.871,0.555,1.068,0.751,0.352,0.608,0.580,�k��,8.2,�L
2022/01/17,12:30,0.581,0.872,0.556,1.067,0.747,0.352,0.609,0.579,�k�k��,7.1,�L
2022/01/17,12:40,0.581,0.872,0.554,1.066,0.750,0.352,0.610,0.579,�k�k��,8.2,��
2022/01/17,12:50,0.581,0.873,0.555,1.069,0.748,0.351,0.611,0.580,�k�k��,9.0,��
2022/01/17,13:00,0.583,0.868,0.554,1.067,0.750,0.351,0.611,0.579,�k�k��,9.4,��
2022/01/17,13:10,0.580,0.874,0.555,1.065,0.749,0.352,0.611,0.580,�k��,8.2,��
2022/01/17,13:20,0.582,0.870,0.555,1.067,0.749,0.352,0.610,0.579,�k��,9.6,��
2022/01/17,13:30,0.583,0.873,0.555,1.067,0.749,0.351,0.612,0.579,�k��,9.9,��
2022/01/17,13:40,0.583,0.870,0.554,1.067,0.750,0.352,0.611,0.578,�k��,6.6,��
2022/01/17,13:50,0.581,0.870,0.554,1.068,0.751,0.351,0.611,0.577,�k��,8.2,��
2022/01/17,14:00,0.584,0.872,0.554,1.067,0.750,0.351,0.612,0.576,�k��,8.5,��
2022/01/17,14:10,0.583,0.872,0.554,1.067,0.750,0.352,0.611,0.577,�k��,9.0,��
2022/01/17,14:20,0.581,0.872,0.554,1.069,0.749,0.351,0.613,0.579,�k��,8.6,��
2022/01/17,14:30,0.580,0.871,0.554,1.068,0.750,0.351,0.612,0.578,�k��,7.6,��
2022/01/17,14:40,0.582,0.872,0.555,1.066,0.749,0.351,0.612,0.578,�k��,8.5,��
2022/01/17,14:50,0.582,0.869,0.553,1.068,0.751,0.352,0.612,0.580,�k��,9.7,��
2022/01/17,15:00,0.581,0.871,0.554,1.069,0.748,0.352,0.612,0.582,�k��,9.5,��
2022/01/17,15:10,0.583,0.871,0.553,1.066,0.751,0.352,0.611,0.579,�k��,7.3,��
2022/01/17,15:20,0.580,0.871,0.555,1.068,0.752,0.351,0.613,0.581,�k��,9.6,��
2022/01/17,15:30,0.581,0.871,0.553,1.070,0.751,0.350,0.613,0.581,�k��,8.6,��
2022/01/17,15:40,0.581,0.873,0.554,1.068,0.750,0.353,0.613,0.580,�k��,8.9,��
2022/01/17,15:50,0.580,0.875,0.553,1.069,0.750,0.352,0.612,0.581,�k��,7.0,��
2022/01/17,16:00,0.580,0.873,0.556,1.069,0.751,0.351,0.612,0.582,�k��,8.3,��
2022/01/17,16:10,0.579,0.871,0.556,1.067,0.748,0.351,0.612,0.580,�k�k��,8.1,��
2022/01/17,16:20,0.583,0.873,0.554,1.071,0.750,0.350,0.614,0.581,�k��,7.6,��
2022/01/17,16:30,0.584,0.872,0.554,1.068,0.750,0.352,0.611,0.581,�k�k��,9.2,��
2022/01/17,16:40,0.582,0.873,0.554,1.068,0.750,0.351,0.613,0.581,�k�k��,8.5,��
2022/01/17,16:50,0.581,0.872,0.551,1.068,0.750,0.351,0.612,0.582,�k�k��,8.6,��
2022/01/17,17:00,0.583,0.874,0.553,1.067,0.749,0.352,0.612,0.581,�k�k��,7.0,��
2022/01/17,17:10,0.581,0.873,0.553,1.067,0.749,0.351,0.613,0.581,�k�k��,8.5,��
2022/01/17,17:20,0.581,0.873,0.554,1.067,0.749,0.351,0.612,0.581,�k�k��,8.5,��
2022/01/17,17:30,0.580,0.873,0.554,1.066,0.749,0.351,0.609,0.580,�k�k��,6.6,��
2022/01/17,17:40,0.580,0.871,0.552,1.067,0.748,0.350,0.611,0.581,�k,5.7,��
2022/01/17,17:50,0.580,0.873,0.553,1.068,0.750,0.351,0.610,0.582,�k,6.2,��
2022/01/17,18:00,0.580,0.871,0.553,1.069,0.749,0.350,0.611,0.583,�k�k��,6.5,��
2022/01/17,18:10,0.581,0.873,0.553,1.067,0.749,0.350,0.610,0.581,�k��,6.6,��
2022/01/17,18:20,0.580,0.874,0.552,1.068,0.749,0.351,0.611,0.581,�k��,7.8,��
2022/01/17,18:30,0.581,0.875,0.553,1.069,0.751,0.351,0.612,0.579,�k��,7.8,��
2022/01/17,18:40,0.581,0.872,0.552,1.068,0.751,0.349,0.612,0.580,�k��,6.4,��
2022/01/17,18:50,0.580,0.873,0.552,1.068,0.751,0.350,0.611,0.581,�k�k��,4.3,��
2022/01/17,19:00,0.580,0.873,0.553,1.066,0.751,0.351,0.611,0.582,�k,3.7,��
2022/01/17,19:10,0.580,0.872,0.554,1.068,0.749,0.349,0.610,0.580,�k,3.8,��
2022/01/17,19:20,0.579,0.872,0.553,1.068,0.749,0.351,0.611,0.579,�k�k��,4.8,��
2022/01/17,19:30,0.580,0.873,0.553,1.068,0.750,0.351,0.611,0.578,�k�k��,4.8,��
2022/01/17,19:40,0.579,0.873,0.553,1.067,0.748,0.353,0.612,0.580,�k�k��,6.2,��
2022/01/17,19:50,0.580,0.872,0.554,1.069,0.748,0.351,0.612,0.581,�k�k��,7.2,��
2022/01/17,20:00,0.581,0.874,0.553,1.068,0.749,0.351,0.610,0.579,�k�k��,5.2,��
2022/01/17,20:10,0.581,0.872,0.553,1.068,0.750,0.351,0.609,0.579,�k�k��,5.6,��
2022/01/17,20:20,0.581,0.873,0.554,1.069,0.749,0.351,0.611,0.579,�k�k��,5.2,��
2022/01/17,20:30,0.582,0.874,0.555,1.067,0.749,0.351,0.611,0.579,�k��,5.3,��
2022/01/17,20:40,0.580,0.872,0.553,1.070,0.749,0.352,0.612,0.579,�k�k��,4.9,��
2022/01/17,20:50,0.580,0.873,0.551,1.067,0.746,0.350,0.611,0.580,�k��,4.6,��
2022/01/17,21:00,0.580,0.872,0.552,1.069,0.748,0.351,0.608,0.580,�k��,4.1,��
2022/01/17,21:10,0.581,0.873,0.553,1.070,0.749,0.351,0.611,0.581,�k��,4.2,��
2022/01/17,21:20,0.579,0.873,0.553,1.069,0.748,0.350,0.609,0.578,���k��,4.2,��
2022/01/17,21:30,0.581,0.872,0.552,1.068,0.749,0.351,0.610,0.581,���k��,3.7,��
2022/01/17,21:40,0.580,0.872,0.551,1.069,0.749,0.350,0.609,0.580,���k��,3.2,��
2022/01/17,21:50,0.580,0.873,0.553,1.068,0.748,0.352,0.609,0.578,���k��,2.9,��
2022/01/17,22:00,0.581,0.873,0.554,1.069,0.749,0.351,0.610,0.579,���k��,3.3,��
2022/01/17,22:10,0.580,0.873,0.552,1.067,0.750,0.352,0.610,0.580,���k��,2.8,��
2022/01/17,22:20,0.580,0.875,0.552,1.068,0.751,0.351,0.609,0.580,��,2.3,��
2022/01/17,22:30,0.580,0.874,0.553,1.070,0.750,0.351,0.610,0.578,���쐼,1.9,��
2022/01/17,22:40,0.578,0.874,0.553,1.069,0.747,0.350,0.610,0.580,��,2.5,��
2022/01/17,22:50,0.581,0.874,0.552,1.072,0.750,0.352,0.611,0.579,��,2.8,��
2022/01/17,23:00,0.581,0.874,0.554,1.069,0.750,0.351,0.610,0.580,���쐼,1.7,��
2022/01/17,23:10,0.582,0.875,0.553,1.068,0.747,0.352,0.611,0.578,���쐼,1.5,��
2022/01/17,23:20,0.582,0.876,0.554,1.068,0.750,0.352,0.610,0.581,���쐼,1.4,��
2022/01/17,23:30,0.581,0.873,0.555,1.070,0.751,0.351,0.610,0.581,���k��,2.3,��
2022/01/17,23:40,0.580,0.873,0.555,1.069,0.749,0.351,0.611,0.578,�k��,2.5,��
2022/01/17,23:50,0.582,0.872,0.555,1.068,0.749,0.352,0.611,0.579,�k��,4.0,��
